EW7883 Weather Reports


time (UTC)temp
C
wind
direction
speed
KPH
gust
KPH
rain 1hr
cm
rain 24hr
cm
rain mn
cm
humidity
%
barometer
mb
20260508220019 16 186 1.6 6.4 0.00 0.00 0.00 54 1004.3
20260508214513 17 167 1.6 9.7 0.00 0.00 0.00 53 1004.4
20260508213009 17 221 6.4 16.1 0.00 0.00 0.00 48 1004.5
20260508211506 17 231 0.0 11.3 0.00 0.00 0.00 42 1004.5
20260508210004 18 234 9.7 24.1 0.00 0.00 0.00 41 1004.6
20260508204559 17 211 6.4 12.9 0.00 0.00 0.00 44 1004.7
20260508203055 17 220 0.0 11.3 0.00 0.00 0.00 44 1004.9
20260508201559 17 284 4.8 17.7 0.00 0.00 0.00 44 1005.2
20260508200057 17 200 6.4 20.9 0.00 0.00 0.00 44 1005.6
20260508194541 17 238 6.4 14.5 0.00 0.00 0.00 40 1005.7
20260508193042 17 219 4.8 11.3 0.00 0.00 0.00 41 1005.9
20260508191537 17 236 6.4 19.3 0.00 0.00 0.00 41 1006.3
20260508190037 16 209 4.8 16.1 0.00 0.00 0.00 42 1006.5
20260508184525 16 223 3.2 17.7 0.00 0.00 0.00 43 1006.8
20260508183019 16 156 1.6 11.3 0.00 0.00 0.00 43 1006.9
20260508181516 16 290 3.2 14.5 0.00 0.00 0.00 41 1006.9
20260508180010 16 236 4.8 16.1 0.00 0.00 0.00 40 1007.1
20260508174513 16 253 4.8 11.3 0.00 0.00 0.00 39 1007.4
20260508173100 16 207 3.2 9.7 0.00 0.00 0.00 39 1007.7
20260508171600 15 248 3.2 11.3 0.00 0.00 0.00 41 1007.9
20260508170056 15 267 4.8 11.3 0.00 0.00 0.00 43 1008.2
20260508164549 14 306 4.8 12.9 0.00 0.00 0.00 47 1008.4
20260508163108 15 284 6.4 11.3 0.00 0.00 0.00 45 1008.7
20260508161539 13 257 6.4 11.3 0.00 0.00 0.00 48 1008.9
20260508160036 13 279 4.8 12.9 0.00 0.00 0.00 48 1009.0
20260508154530 13 238 1.6 4.8 0.00 0.00 0.00 47 1008.9
20260508153030 13 309 0.0 4.8 0.00 0.00 0.00 50 1009.1
20260508151528 13 290 1.6 4.8 0.00 0.00 0.00 48 1009.3
20260508150017 12 298 1.6 6.4 0.00 0.00 0.00 51 1009.3
20260508144511 12 308 0.0 3.2 0.00 0.00 0.00 53 1009.5
20260508143007 11 308 0.0 4.8 0.00 0.00 0.00 55 1009.6
20260508141504 11 308 3.2 8.0 0.00 0.00 0.00 54 1009.7
20260508140100 11 46 1.6 6.4 0.00 0.00 0.00 46 1009.8
20260508134600 11 317 0.0 4.8 0.00 0.00 0.00 45 1009.9
20260508133051 10 317 0.0 1.6 0.00 0.00 0.00 29 1010.0
20260508131553 10 317 1.6 4.8 0.00 0.00 0.00 26 1009.9
20260508130053 10 331 0.0 3.2 0.00 0.00 0.00 13 1009.9
20260508124537 9 331 0.0 0.0 0.00 0.00 0.00 11 1009.9
20260508123037 8 330 0.0 4.8 0.00 0.00 0.00 4 1009.8
20260508121530 8 330 0.0 3.2 0.00 0.00 0.00 1 1009.9
20260508120025 7 350 0.0 3.2 0.00 0.00 0.00 1 1009.7
20260508114521 7 351 0.0 1.6 0.00 0.00 0.00 1 1009.4
20260508113016 6 351 0.0 0.0 0.00 0.00 0.00 1 1009.3
20260508111511 5 355 0.0 1.6 0.00 0.00 0.00 1 1009.2
20260508110007 5 234 0.0 0.0 0.00 0.00 0.00 1 1009.0
20260508104502 5 234 0.0 0.0 0.00 0.00 0.00 1 1009.1
20260508103100 5 234 0.0 0.0 0.00 0.00 0.00 1 1009.0
20260508101556 5 234 0.0 0.0 0.00 0.00 0.00 1 1009.0
20260508100049 6 234 0.0 3.2 0.00 0.00 0.00 1 1008.8
20260508094553 6 234 0.0 0.0 0.00 0.00 0.00 1 1008.9
20260508093053 6 234 0.0 0.0 0.00 0.00 0.00 1 1008.9
20260508091539 6 234 0.0 0.0 0.00 0.00 0.00 1 1008.9
20260508090052 6 234 0.0 0.0 0.00 0.00 0.00 1 1008.8
20260508084528 7 234 0.0 0.0 0.00 0.00 0.00 4 1008.8
20260508083026 7 234 0.0 3.2 0.00 0.00 0.00 4 1008.8
20260508081519 7 234 0.0 3.2 0.00 0.00 0.00 5 1009.1
20260508080020 7 234 0.0 0.0 0.00 0.00 0.00 8 1008.9
20260508074514 7 234 0.0 4.8 0.00 0.00 0.00 8 1009.3
20260508073008 7 234 0.0 0.0 0.00 0.00 0.00 6 1009.2
20260508071504 7 234 0.0 3.2 0.00 0.00 0.00 5 1009.2
20260508070057 7 234 0.0 0.0 0.00 0.00 0.00 1 1009.1
20260508064552 6 234 0.0 0.0 0.00 0.00 0.00 3 1009.2
20260508063052 6 234 0.0 0.0 0.00 0.00 0.00 8 1009.3
20260508061544 7 234 0.0 0.0 0.00 0.00 0.00 12 1009.2
20260508060043 7 234 0.0 0.0 0.00 0.00 0.00 18 1009.3
20260508054549 7 234 0.0 0.0 0.00 0.00 0.00 27 1009.4
20260508053037 8 234 0.0 0.0 0.00 0.00 0.00 37 1009.4
20260508051531 8 234 0.0 0.0 0.00 0.00 0.00 42 1009.4
20260508050029 8 234 0.0 1.6 0.00 0.00 0.00 44 1009.5
20260508044525 8 234 0.0 4.8 0.00 0.00 0.00 48 1009.5
20260508043022 9 234 0.0 8.0 0.00 0.00 0.00 51 1009.3
20260508041521 9 235 0.0 6.4 0.00 0.00 0.00 54 1009.2
20260508040019 10 235 0.0 8.0 0.00 0.00 0.00 55 1009.2
20260508034517 10 243 0.0 8.0 0.00 0.00 0.00 56 1009.2
20260508033016 10 243 1.6 4.8 0.00 0.00 0.00 56 1009.4
20260508031503 10 243 0.0 0.0 0.00 0.00 0.00 56 1009.7
20260508030114 10 243 0.0 0.0 0.00 0.00 0.00 56 1009.8
20260508024605 10 243 0.0 4.8 0.00 0.00 0.00 55 1009.8
20260508023050 10 242 1.6 11.3 0.00 0.00 0.00 54 1009.7
20260508021649 11 284 8.0 24.1 0.00 0.00 0.00 51 1009.8
20260508020047 11 288 4.8 11.3 0.00 0.00 0.00 49 1009.7
20260508014546 11 281 4.8 11.3 0.00 0.00 0.00 48 1009.5
20260508013045 11 236 4.8 9.7 0.00 0.00 0.00 48 1009.3
20260508011554 11 288 0.0 0.0 0.00 0.00 0.00 48 1009.1
20260508010045 11 288 0.0 4.8 0.00 0.00 0.00 47 1008.8
20260508004543 11 287 1.6 8.0 0.00 0.00 0.00 45 1008.8
20260508003039 11 278 3.2 9.7 0.00 0.00 0.00 44 1008.8
20260508001537 11 297 1.6 4.8 0.00 0.00 0.00 44 1008.8
20260508000033 12 272 3.2 12.9 0.00 0.00 0.00 43 1008.8
20260507234533 12 279 8.0 17.7 0.00 0.00 0.00 42 1008.7
20260507233021 12 277 4.8 14.5 0.00 0.00 0.00 42 1008.8
20260507231517 12 280 3.2 11.3 0.00 0.00 0.00 42 1008.8
20260507230014 12 293 8.0 17.7 0.00 0.00 0.00 40 1008.8
20260507224511 12 294 6.4 16.1 0.00 0.00 0.00 39 1008.9
20260507223006 12 275 8.0 16.1 0.00 0.00 0.00 38 1008.9
20260507221502 12 286 4.8 19.3 0.00 0.00 0.00 39 1009.1